#timestamp,LO_Frequency,Hit,StdDev 
1550466015.6,286047003.7,N
1550466035.4,286047003.4,N
1550466055.3,286047002.5,N
1550466075.1,286046999.7,N
1550466095.9,286047001.6,N
1550466115.7,286047003.3,N
1550466135.5,286047005.1,N
1550466155.4,286047001.8,N
1550466175.2,286046998.1,N
1550466195.0,286047001.2,N
1550466195.9,286047001.2,N
1550466215.8,286047000.1,N
1550466235.6,286047003.5,N
1550466255.5,286047002.4,N
1550466275.3,286046998.7,N
1550466295.1,286046997.7,N
1550466315.9,286046997.4,N
1550466335.7,286047000.8,N
1550466355.5,286047000.3,N
1550466375.4,286047011.9,Y
1550466395.2,286047000.6,P
1550466415.1,286047002.7,P
1550466416.0,286047002.7,N
1550466435.8,286047002.0,N
1550466455.6,286047002.6,Y
1550466475.5,286046998.5,P
1550466495.3,286046997.2,N
1550466515.2,286046995.3,N
1550466535.9,286046996.0,N
1550466555.7,286046994.4,N
1550466575.6,286046994.0,N
1550466595.4,286046995.6,N
1550466615.3,286046995.8,N
1550466635.1,286046995.5,N
1550466636.0,286046995.5,N
1550466655.8,286046995.5,N
1550466675.7,286046995.5,N
1550466695.5,286046997.4,N
1550466715.3,286046995.2,N
1550466735.2,286046993.7,Y
1550466755.0,286046999.5,P
1550466755.9,286046999.5,N
1550466775.8,286046998.3,N
1550466795.6,286046998.5,N
1550466815.4,286047002.6,N
1550466835.3,286047003.5,N
1550466855.1,286047004.6,N
1550466875.8,286047002.9,N
1550466895.7,286047002.7,N
1550466915.5,286047004.0,N
1550466935.4,286047004.0,N
1550466955.2,286047006.0,N
1550466975.0,286047005.7,N
1550466976.0,286047005.7,N
1550466995.8,286047007.2,N
1550467015.6,286047004.8,N
1550467035.5,286047004.1,N
1550467055.3,286047000.4,N
1550467075.1,286047000.6,N
1550467095.9,286047001.2,N
1550467115.7,286046999.3,N
1550467135.6,286046999.1,N
1550467155.4,286046999.6,N
1550467175.2,286046999.1,N
1550467195.1,286047000.4,N
1550467196.0,286047000.4,N
1550467215.8,286046999.9,N
1550467235.7,286047004.2,N
1550467255.5,286047003.7,N
1550467275.3,286046999.7,N
1550467295.2,286047001.7,N
1550467315.0,286047002.0,N
1550467315.9,286047002.0,N
1550467335.7,286046999.8,N
1550467355.6,286047002.7,N
1550467375.4,286046998.2,N
1550467395.3,286046998.6,N
1550467415.1,286046999.0,N
1550467416.0,286046999.0,N
1550467435.8,286046998.4,N
1550467455.7,286046998.3,N
1550467475.5,286047000.0,N
1550467495.4,286047002.7,N
1550467515.2,286046999.9,N
1550467535.0,286047002.0,N
1550467535.9,286047002.0,N
1550467555.8,286047000.2,N
1550467575.6,286047002.7,N
1550467595.4,286047001.9,N
1550467615.3,286047003.4,N
1550467635.1,286047005.2,N
1550467655.9,286047001.3,N
1550467675.7,286047003.9,N
1550467695.5,286047004.2,N
1550467715.4,286047003.8,N
1550467735.2,286047003.8,N
1550467755.0,286047003.1,N
1550467756.0,286047003.1,N
1550467775.8,286047001.4,N
1550467795.6,286047002.7,N
1550467815.5,286047002.3,N
1550467835.3,286047002.1,N
1550467855.1,286047003.2,N
1550467875.9,286047000.2,N
1550467895.7,286046998.3,N
1550467915.6,286046999.4,N
1550467935.4,286047000.9,N
1550467955.2,286047001.1,N
1550467975.1,286047001.5,N
1550467976.0,286047001.5,N
1550467995.8,286047001.7,N
1550468015.7,286047005.6,Y
1550468035.5,286047001.4,P
1550468055.3,286047002.3,P
1550468075.2,286047000.2,N
1550468095.0,286047002.3,N
1550468095.9,286047002.3,N
1550468115.8,286047001.7,N
1550468135.6,286047002.0,N
1550468155.4,286047001.1,N
1550468175.3,286046999.0,N
1550468195.1,286046998.6,N
1550468215.8,286046997.4,N
1550468235.7,286046997.9,N
1550468255.5,286046997.5,N
1550468275.4,286046999.6,N
1550468295.2,286046999.3,N
1550468315.0,286046998.2,N
1550468315.9,286046998.2,N
1550468335.8,286046996.9,N
1550468355.6,286046999.1,N
1550468375.5,286046999.5,N
1550468395.3,286046999.5,N
1550468415.1,286046999.3,N
1550468435.9,286046999.3,N
1550468455.7,286046998.1,N
1550468475.5,286046999.8,N
1550468495.4,286047002.6,N
1550468515.2,286047001.1,N
1550468535.1,286046998.8,N
1550468536.0,286046998.8,N
1550468555.8,286047001.0,N
1550468575.6,286046999.0,N
1550468595.5,286046996.5,N
1550468615.3,286046996.8,N
1550468635.1,286046997.8,N
1550468655.9,286046999.2,N
1550468675.7,286046999.3,N
1550468695.6,286047000.0,N
1550468715.4,286047002.4,N
1550468735.2,286047003.8,N
1550468755.1,286047001.9,N
1550468756.0,286047001.9,N
1550468775.8,286047002.5,N
1550468795.7,286047002.8,N
1550468815.5,286047002.3,N
1550468835.3,286047003.2,N
1550468855.2,286047000.9,N
1550468875.9,286046998.9,N
1550468895.7,286046998.5,N
1550468915.6,286046999.3,N
1550468935.4,286046999.5,N
1550468955.3,286047000.1,N
1550468975.1,286047000.1,N
1550468976.0,286047000.1,N
1550468995.8,286047002.5,N
1550469015.7,286047004.1,N
1550469035.5,286047001.9,N
1550469055.3,286047001.3,N
1550469075.2,286047007.1,Y
1550469095.0,286047003.2,P
1550469095.9,286047003.2,N
1550469115.8,286047005.7,P
1550469135.6,286047003.4,N
1550469155.4,286047002.3,N
1550469175.3,286047002.3,N
1550469195.1,286046999.7,N
1550469215.9,286047001.1,N
1550469235.7,286046998.2,N
1550469255.5,286046999.7,N
1550469275.4,286047002.8,N
1550469295.2,286047002.4,N
1550469315.1,286047001.0,N
1550469316.0,286047001.0,N
1550469335.8,286047001.2,N
1550469355.6,286047000.2,N
1550469375.5,286047000.2,N
1550469395.3,286047001.3,N
1550469415.2,286047002.1,N
1550469435.9,286046998.6,N
1550469455.7,286046998.9,N
1550469475.6,286046996.6,N
1550469495.4,286046995.0,N
1550469515.2,286046996.1,N
1550469535.1,286046995.3,N
1550469536.0,286046995.3,N
1550469555.8,286046996.9,N
1550469575.7,286046998.0,N
1550469595.5,286046997.5,N
